Location: Dąbrowa Górnicza
(50.3177°N, 19.1898°E)
Time: 16:36:23
(UTC+01:00)

ISS - Visible Passes

Search period start: 20 November 2017 00:00
Search period end: 30 November 2017 00:00
Orbit: 402 x 407 km, 51.6° (Epoch: 21 November)

Date Brightness Start Highest point End Pass type
(mag) Time Alt. Az. Time Alt. Az. Time Alt. Az.
28 Nov -1.4 18:16:31 10° SSW 18:17:35 17° SSW 18:17:35 17° SSW visible
29 Nov -2.1 17:24:47 10° S 17:27:12 19° SE 17:27:28 19° SE visible
29 Nov -0.4 19:00:01 10° WSW 19:00:07 11° WSW 19:00:07 11° WSW visible
